Flag for Netherlands Weather past 2 weeks in Leerdam, Netherlands

Now
50 °F

Cool.


Feels Like: 46 °F
Forecast: 38 / 57 °F
Wind: 9 mph from West

Location: Gilze-Rijen

Current Time: Apr 28, 2015 at 8:44:08 PM

Latest Report: Apr 28, 2015 at 7:55 PM


Visibility: N/A

Pressure: 30.09 "Hg

Humidity: 40%

Dew point: 27 °F

Location of LeerdamLocation

Historic Weather in Leerdam — Graph

°F

Leerdam temperature yesterday

Maximum temperature yesterday: 55 °F (at 1:55 PM)
Minimum temperature yesterday: 41 °F (at 11:25 PM)
Average temperature yesterday: 49 °F

Past Weeks' High & Low Weather Summary

 TemperatureHumidityPressure
High75 °F (Apr 15, 2:55 PM)100% (Apr 16, 3:55 AM)30.48 "Hg (Apr 16, 3:55 AM)
Low28 °F (Apr 28, 5:25 AM)33% (Apr 15, 1:25 PM)29.68 "Hg (Apr 26, 6:25 AM)
Average51 °F71%30.09 "Hg
* Reported Apr 13 7:25 PM — Apr 28 7:25 PM, Leerdam, Weather by CustomWeather, © 2015

Note: Actual official high and low records may vary slightly from our data, if they occured in-between our weather recording intervals... More about our weather records

Advertising

Leerdam weather history for previous 24 hours

 ConditionsComfort  
Time TempWeatherWind HumidityBarometerVisibility
7:25 PM
Tue, Apr 28
50 °FCool.13 mph37%30.09 "HgN/A
6:55 PM50 °FCool.12 mph40%30.09 "HgN/A
6:25 PM52 °FCool.16 mph41%30.09 "HgN/A
5:55 PM52 °FScattered clouds.16 mph35%30.09 "HgN/A
5:25 PM52 °FPassing clouds.18 mph41%30.07 "HgN/A
4:55 PM52 °FPartly sunny.16 mph44%30.07 "HgN/A
4:25 PM50 °FScattered clouds.20 mph43%30.07 "HgN/A
3:55 PM50 °FPassing clouds.21 mph47%30.07 "HgN/A
3:25 PM52 °FPartly sunny.22 mph44%30.04 "HgN/A
2:55 PM52 °FPassing clouds.18 mph44%30.04 "HgN/A
2:25 PM52 °FPassing clouds.17 mph47%30.04 "HgN/A
1:55 PM50 °FPassing clouds.20 mph43%30.01 "HgN/A
1:25 PM52 °FCool.18 mph44%30.01 "HgN/A
12:55 PM52 °FPassing clouds.21 mph50%30.01 "HgN/A
12:25 PM52 °FCool.16 mph62%29.98 "HgN/A
11:55 AM48 °FScattered clouds.12 mph71%29.98 "HgN/A
11:25 AM48 °FLight rain. Scattered clouds.7 mph76%29.98 "HgN/A
10:55 AM46 °FLight rain. Broken clouds.12 mph71%29.95 "HgN/A
10:25 AM50 °FPassing clouds.13 mph62%29.95 "HgN/A
10:04 AM50 °FScattered clouds.9 mph67%29.95 "HgN/A
9:55 AM48 °FCool.9 mph71%29.95 "HgN/A
9:25 AM46 °FCool.6 mph71%29.92 "HgN/A
8:55 AM43 °FPassing clouds.8 mph71%29.92 "HgN/A
8:25 AM41 °FPartly sunny.7 mph76%29.92 "HgN/A
7:55 AM39 °FOvercast.6 mph81%29.92 "HgN/A
7:25 AM36 °FPartly sunny.5 mph87%29.92 "HgN/A
6:55 AM30 °FPassing clouds.5 mph93%29.92 "HgN/A
6:25 AM30 °FChilly.5 mph93%29.92 "HgN/A
5:55 AM28 °FChilly.3 mph93%29.92 "HgN/A
5:25 AM28 °FChilly.1 mph100%29.89 "HgN/A
4:55 AM30 °FChilly.1 mph100%29.89 "HgN/A
4:25 AM30 °FChilly.2 mph100%29.89 "HgN/A
3:55 AM30 °FChilly.3 mph93%29.89 "HgN/A
3:25 AM32 °FChilly.1 mph93%29.89 "HgN/A
2:55 AM34 °FChilly.1 mph93%29.89 "HgN/A
2:25 AM36 °FChilly.1 mph87%29.89 "HgN/A
1:55 AM34 °FChilly.3 mph87%29.89 "HgN/A
1:25 AM37 °FClear.5 mph81%29.89 "HgN/A
12:55 AM39 °FChilly.5 mph75%29.89 "HgN/A
12:25 AM39 °FChilly.5 mph75%29.89 "HgN/A
11:55 PM
Mon, Apr 27
41 °FQuite cool.6 mph70%29.89 "HgN/A
11:25 PM41 °FQuite cool.7 mph70%29.86 "HgN/A
10:55 PM43 °FQuite cool.9 mph66%29.86 "HgN/A
10:25 PM43 °FClear.10 mph66%29.86 "HgN/A
9:55 PM45 °FQuite cool.10 mph61%29.86 "HgN/A
9:25 PM46 °FCool.10 mph57%29.86 "HgN/A
8:55 PM48 °FCool.12 mph50%29.83 "HgN/A
8:25 PM50 °FCool.12 mph43%29.83 "HgN/A
Weather by CustomWeather, © 2015

See weather overviewHow to use our weather pages